カタログに戻る

STARLINK-37042

運用中通信VLEO
NORAD 68266·PAYLOAD·🇺🇸 United States

打ち上げ Mar 19, 2026 から Vandenberg Space Force Base

Loading…

次のパス (今後24時間)

TLE

最新Source: CelesTrak SupGP

元期: Sep 14, 2026, 23:14 UTC

1 68266C 26055E   26257.96854167 -.00084097  00000+0 -24841-2 0  2571
2 68266  53.1569 155.9190 0001154  88.6266 109.3218 15.34439344    11

AllMySatでSTARLINK-37042をリアルタイム追跡

Download on the App Store